This is the latest recevied weather packets stored in our database for station/object N7MLR. If no packets are shown the sender has not sent any weather packets the latest 10 day(s).
| Time | Temp. | Humidity | Pressure | Rain* | Wind** | Luminosity | Snow |
|---|---|---|---|---|---|---|---|
| 1778120359 | 16.67° C | 87% | 1013.5 hPa | 0 mm | - | 0 W/m² | - |
| 1778120054 | 16.67° C | 87% | 1013.1 hPa | 0 mm | - | 0 W/m² | - |
| 1778119753 | 16.67° C | 87% | 1013.2 hPa | 0 mm | - | 0 W/m² | - |
| 1778119449 | 16.67° C | 87% | 1013 hPa | 0 mm | - | 0 W/m² | - |
| 1778119146 | 16.67° C | 87% | 1013.1 hPa | 0 mm | - | 0 W/m² | - |
| 1778118844 | 16.67° C | 87% | 1013 hPa | 0 mm | - | 0 W/m² | - |
| 1778118541 | 16.67° C | 87% | 1012.6 hPa | 0 mm | - | 0 W/m² | - |
| 1778118237 | 16.67° C | 87% | 1012.6 hPa | 0 mm | - | 0 W/m² | - |
| 1778117934 | 16.67° C | 87% | 1012.5 hPa | 0 mm | - | 0 W/m² | - |
| 1778117631 | 16.67° C | 87% | 1012.6 hPa | 0 mm | - | 0 W/m² | - |
| 1778117328 | 16.67° C | 86% | 1012.6 hPa | 0 mm | - | 0 W/m² | - |
| 1778117023 | 16.67° C | 86% | 1012.7 hPa | 0 mm | - | 0 W/m² | - |
| 1778116721 | 16.67° C | 86% | 1012.2 hPa | 0 mm | - | 0 W/m² | - |
| 1778116418 | 16.67° C | 86% | 1012.4 hPa | 0 mm | - | 0 W/m² | - |
| 1778116112 | 16.67° C | 86% | 1012.4 hPa | 0 mm | - | 1 W/m² | - |
| 1778115808 | 16.67° C | 86% | 1012.2 hPa | 0 mm | - | 3 W/m² | - |
| 1778115505 | 17.22° C | 85% | 1011.9 hPa | 0 mm | - | 6 W/m² | - |
| 1778115202 | 17.22° C | 85% | 1011.9 hPa | 0 mm | - | 11 W/m² | - |
| 1778114899 | 17.22° C | 85% | 1012.2 hPa | 0 mm | - | 17 W/m² | - |
| 1778114596 | 17.22° C | 85% | 1012.1 hPa | 0 mm | - | 26 W/m² | - |
| 1778114293 | 17.22° C | 84% | 1011.9 hPa | 0 mm | - | 31 W/m² | - |
| 1778113987 | 17.22° C | 84% | 1011.8 hPa | 0 mm | - | 25 W/m² | - |
| 1778113678 | 17.22° C | 84% | 1011.8 hPa | 0 mm | - | 27 W/m² | - |
| 1778113374 | 17.22° C | 84% | 1012.1 hPa | 0 mm | - | 24 W/m² | - |
| 1778113071 | 17.22° C | 84% | 1012 hPa | 0 mm | - | 24 W/m² | - |
* Rain latest hour (hover to see other rain measurements)
** Current wind speed in m/s (hover to see current wind gust speed)